Bemidji, MN

2:35 PM CDT on March 29, 2017 (GMT -0500)
Bemidji-Beltrami County

Weather History for KBJI - September, 2013

Change the Weather History Date:

Sunday, September 8, 2013

  Actual Average Record
Temperature  
Mean Temperature 60 °F -  
Max Temperature 63 °F 69 °F 89 °F (2002)
Min Temperature 57 °F 49 °F 28 °F (1956)
Degree Days  
Heating Degree Days 5    
Growing Degree Days 10 (Base 50)    
Moisture  
Dew Point 54 °F    
Average Humidity 81    
Maximum Humidity 99    
Minimum Humidity 61    
Precipitation  
Precipitation 0.00 in - - ()
Sea Level Pressure  
Sea Level Pressure 30.03 in    
Wind  
Wind Speed 9 mph (SE)    
Max Wind Speed 14 mph    
Max Gust Speed 18 mph    
Visibility 9 miles    
Events Rain    
Averages and records for this station are not official NWS values.
T = Trace of Precipitation, MM = Missing Value Source: NWS Daily Summary

Daily Weather History Graph

Daily Weather History Graph

Search for Another Location

Airport or City:

Trip Planner

Search our weather history database for the weather conditions in past years. The results will help you decide how hot, cold, wet, or windy it might be!

Date:

Astronomy

Sep. 08, 2013 Rise Set
Actual Time 6:48 AM CDT 7:45 PM CDT
Civil Twilight 6:16 AM CDT 8:16 PM CDT
Nautical Twilight 5:39 AM CDT 8:54 PM CDT
Astronomical Twilight 4:59 AM CDT 9:33 PM CDT
Moon 10:24 AM CDT (9/8) 9:02 PM CDT (9/8)
Length of Visible Light 13h 59m
Length of Day
12h 57m
Waxing Crescent, 11% of the Moon is Illuminated
Sep 8
Waxing Crescent
Sep 12
First Quarter
Sep 19
Full
Sep 26
Last Quarter
Oct 4
New

Hourly Weather History & Observations

Time (CDT) Temp. Dew Point Humidity Pressure Visibility Wind Dir Wind Speed Gust Speed Precip Events Conditions
12:13 AM 63.5 °F 50.9 °F 63% 30.12 in 10.0 mi East 9.2 mph - N/A   Clear
12:33 AM 62.6 °F 51.4 °F 67% 30.12 in 10.0 mi East 8.1 mph - N/A   Clear
12:53 AM 61.9 °F 52.5 °F 71% 30.12 in 10.0 mi East 5.8 mph - N/A   Clear
1:13 AM 61.0 °F 53.4 °F 76% 30.12 in 10.0 mi East 5.8 mph - N/A   Clear
1:33 AM 62.4 °F 55.0 °F 77% 30.12 in 10.0 mi East 6.9 mph - N/A   Scattered Clouds
1:53 AM 62.6 °F 55.8 °F 78% 30.11 in 10.0 mi East 10.4 mph - N/A   Scattered Clouds
2:13 AM 62.6 °F 55.4 °F 77% 30.10 in 10.0 mi ESE 8.1 mph - N/A   Clear
2:33 AM 62.6 °F 55.0 °F 76% 30.11 in 10.0 mi ESE 8.1 mph - N/A   Clear
2:53 AM 62.1 °F 54.5 °F 76% 30.11 in 10.0 mi ESE 8.1 mph - N/A   Clear
3:13 AM 61.3 °F 54.1 °F 77% 30.11 in 10.0 mi ESE 8.1 mph - N/A   Clear
3:33 AM 61.2 °F 54.0 °F 77% 30.11 in 10.0 mi ESE 8.1 mph - N/A   Clear
3:53 AM 60.4 °F 53.8 °F 79% 30.11 in 10.0 mi ESE 8.1 mph - N/A   Clear
4:13 AM 60.4 °F 53.6 °F 78% 30.11 in 10.0 mi ESE 8.1 mph - N/A   Mostly Cloudy
4:33 AM 61.0 °F 53.6 °F 77% 30.11 in 10.0 mi ESE 6.9 mph - N/A   Overcast
4:53 AM 60.8 °F 53.4 °F 77% 30.10 in 10.0 mi ESE 8.1 mph - N/A   Scattered Clouds
5:13 AM 60.6 °F 53.2 °F 77% 30.10 in 10.0 mi ESE 8.1 mph - N/A   Clear
5:33 AM 60.4 °F 52.9 °F 76% 30.10 in 10.0 mi ESE 8.1 mph - N/A   Clear
5:52 AM 60.3 °F 52.7 °F 76% 30.10 in 10.0 mi ESE 6.9 mph - N/A   Clear
6:13 AM 60.4 °F 52.2 °F 74% 30.10 in 10.0 mi SE 8.1 mph - N/A   Scattered Clouds
6:33 AM 60.8 °F 51.8 °F 72% 30.10 in 10.0 mi ESE 5.8 mph - N/A   Scattered Clouds
6:53 AM 60.3 °F 52.9 °F 77% 30.11 in 10.0 mi ESE 5.8 mph - N/A   Light Drizzle
7:13 AM 60.1 °F 52.5 °F 76% 30.10 in 10.0 mi ESE 10.4 mph - N/A   Overcast
7:33 AM 60.1 °F 51.8 °F 74% 30.10 in 10.0 mi SE 9.2 mph - N/A   Light Drizzle
7:53 AM 60.4 °F 50.9 °F 71% 30.10 in 10.0 mi SE 13.8 mph - N/A   Overcast
8:13 AM 60.8 °F 50.0 °F 68% 30.10 in 10.0 mi SE 8.1 mph - N/A   Overcast
8:33 AM 60.4 °F 49.6 °F 68% 30.10 in 10.0 mi SE 9.2 mph - N/A   Overcast
8:53 AM 60.4 °F 50.0 °F 68% 30.10 in 10.0 mi SE 9.2 mph - N/A   Overcast
9:13 AM 60.8 °F 49.8 °F 67% 30.10 in 10.0 mi SSE 8.1 mph - N/A   Overcast
9:33 AM 61.0 °F 49.5 °F 66% 30.08 in 10.0 mi SE 10.4 mph - N/A   Overcast
9:53 AM 61.2 °F 49.1 °F 65% 30.08 in 10.0 mi SE 12.7 mph 16.1 mph N/A   Overcast
10:13 AM 61.2 °F 48.7 °F 64% 30.09 in 10.0 mi SE 9.2 mph - N/A   Overcast
10:33 AM 61.9 °F 49.5 °F 64% 30.07 in 10.0 mi SE 10.4 mph - N/A   Overcast
10:53 AM 61.9 °F 49.3 °F 63% 30.07 in 10.0 mi SE 9.2 mph - N/A   Mostly Cloudy
11:13 AM 61.9 °F 49.8 °F 65% 30.07 in 10.0 mi ESE 10.4 mph - N/A   Light Drizzle
11:33 AM 62.6 °F 49.8 °F 63% 30.06 in 10.0 mi SE 10.4 mph - N/A   Light Drizzle
11:53 AM 63.3 °F 49.8 °F 61% 30.05 in 10.0 mi SE 12.7 mph - N/A   Mostly Cloudy
12:13 PM 63.0 °F 51.4 °F 66% 30.04 in 10.0 mi SE 13.8 mph 18.4 mph N/A   Scattered Clouds
12:33 PM 62.8 °F 52.5 °F 69% 30.04 in 10.0 mi SE 12.7 mph - N/A   Mostly Cloudy
12:53 PM 62.4 °F 52.5 °F 70% 30.04 in 10.0 mi SE 12.7 mph - N/A   Overcast
1:13 PM 61.7 °F 52.9 °F 73% 30.03 in 10.0 mi SE 10.4 mph - N/A   Overcast
1:33 PM 60.1 °F 54.9 °F 83% 30.02 in 10.0 mi SE 9.2 mph - N/A Rain Light Rain
1:53 PM 59.0 °F 55.6 °F 88% 30.02 in 7.0 mi ESE 9.2 mph - N/A   Heavy Drizzle
2:13 PM 58.5 °F 56.3 °F 93% 30.01 in 5.0 mi ESE 8.1 mph - N/A   Drizzle
2:33 PM 59.0 °F 56.5 °F 91% 30.01 in 10.0 mi ESE 5.8 mph - N/A   Overcast
2:53 PM 59.0 °F 56.7 °F 92% 30.00 in 10.0 mi ESE 6.9 mph - N/A   Overcast
3:13 PM 59.9 °F 56.8 °F 90% 29.99 in 10.0 mi ESE 10.4 mph - N/A   Overcast
3:33 PM 60.3 °F 56.8 °F 88% 29.98 in 10.0 mi ESE 9.2 mph - N/A   Overcast
3:53 PM 60.3 °F 56.7 °F 88% 29.98 in 10.0 mi ESE 8.1 mph - N/A   Overcast
4:13 PM 60.1 °F 56.1 °F 87% 29.98 in 10.0 mi SSE 8.1 mph - N/A   Overcast
4:33 PM 60.3 °F 56.1 °F 86% 29.98 in 10.0 mi SSE 5.8 mph - N/A   Overcast
4:53 PM 60.1 °F 56.3 °F 87% 29.98 in 10.0 mi SSE 9.2 mph - N/A   Overcast
5:13 PM 59.4 °F 55.9 °F 88% 29.97 in 10.0 mi SE 9.2 mph - N/A   Overcast
5:32 PM 59.2 °F 56.1 °F 90% 29.96 in 10.0 mi SE 8.1 mph - N/A   Light Drizzle
5:53 PM 59.2 °F 56.3 °F 90% 29.96 in 10.0 mi SE 9.2 mph - N/A Rain Rain
6:13 PM 58.8 °F 56.3 °F 91% 29.94 in 10.0 mi SE 9.2 mph - N/A   Overcast
6:33 PM 59.0 °F 56.3 °F 91% 29.94 in 10.0 mi SE 8.1 mph - N/A   Overcast
6:53 PM 59.0 °F 56.3 °F 91% 29.94 in 10.0 mi SE 8.1 mph - N/A   Overcast
7:13 PM 59.2 °F 56.5 °F 91% 29.93 in 10.0 mi SE 8.1 mph - N/A   Overcast
7:33 PM 59.0 °F 56.5 °F 91% 29.92 in 10.0 mi SE 9.2 mph - N/A   Overcast
7:53 PM 58.8 °F 56.5 °F 92% 29.92 in 10.0 mi SE 9.2 mph - N/A   Overcast
8:13 PM 58.8 °F 56.5 °F 92% 29.93 in 10.0 mi SE 13.8 mph - N/A   Overcast
8:33 PM 58.6 °F 56.8 °F 94% 29.93 in 10.0 mi SE 8.1 mph - N/A   Overcast
8:53 PM 58.5 °F 57.2 °F 96% 29.93 in 10.0 mi SSE 8.1 mph - N/A   Overcast
9:13 PM 58.3 °F 57.2 °F 96% 29.92 in 10.0 mi SSE 6.9 mph - N/A   Overcast
9:33 PM 58.3 °F 57.2 °F 96% 29.92 in 10.0 mi SSE 8.1 mph - N/A   Overcast
9:52 PM 58.3 °F 57.2 °F 96% 29.91 in 10.0 mi SSE 5.8 mph - N/A   Overcast
10:13 PM 58.1 °F 57.2 °F 97% 29.90 in 5.0 mi SSE 8.1 mph - N/A   Overcast
10:33 PM 57.9 °F 57.2 °F 97% 29.90 in 3.0 mi SSE 8.1 mph - N/A   Overcast
10:53 PM 57.7 °F 57.4 °F 99% 29.90 in 2.0 mi SSE 8.1 mph - N/A   Overcast
11:13 PM 57.7 °F 57.4 °F 99% 29.90 in 2.5 mi SSE 6.9 mph - N/A   Overcast
11:33 PM 57.9 °F 57.4 °F 98% 29.89 in 3.0 mi SSE 8.1 mph - N/A   Overcast
11:53 PM 58.1 °F 57.6 °F 98% 29.89 in 3.0 mi SSE 6.9 mph - N/A   Overcast